Content
SEND FEEDBACK

Daily
Averages
Monthly
Summary
United States of America

ANN ARBOR, MICHIGAN


Home > North America > United States > Michigan
Elevation: 759 feet     Latitude: 42 17N     Longitude: 083 43W

WEATHER
 
SELECT A DAY
Number of Records: 204,307;   Date Range: 1/1/95 - 9/14/14
 
SHARE

PRINT THIS DATA

[ ← Previous Day ]
WEATHER ALMANAC - FEBRUARY 5, 2013
[ Next Day → ]
[ °C ]   °F
Weather ElementAverageHighLow
Temperature22.1 °F28.4 °F (11:13 pm)12.2 °F (9:13 am)
Dewpoint18.5 °F25 °F (10:53 pm)10.4 °F (9:13 am)
Humidity86.4 %96 % (10:53 pm)69 % (2:53 pm)
Barometer29.89 in29.97 in (11:53 pm)29.80 in (5:15 pm)
Wind Speed5.5 mph15 mph (11:53 pm)
Wind Gust21.9 mph (11:53 pm)
Weather ElementAverage
Visibility5.9 mi
Wind DirectionSSE (151.5 °)

Weather ElementTotal
Precipitation0.01 in
Heating Degree Days44.7 (Base 65)
Averaged from 47 records on February 5, 2013
WEATHER CONDITIONS BREAKOUT
WIND DIRECTION BREAKOUT
WEATHER BY HOUR - FEBRUARY 5, 2013
[ °C ]   °F
Local TimeTemperatureDewpointHumidityBarometerVisibilityWind DirectionWind SpeedGust SpeedPrecipitationEventsConditions
12:21 AM19.4 °F17.6 °F93 %29.91 in6.0 miCalmOvercast
12:53 AM19.9 °F17.1 °F89 %29.94 in6.0 miNE (50°)3.5 mphOvercast
1:00 AM19.4 °F17.6 °F93 %29.90 in5.0 miCalmOvercast
1:53 AM19.9 °F17.1 °F89 %29.93 in7.0 miCalmOvercast
2:05 AM19.4 °F17.6 °F93 %29.89 in6.0 miCalmOvercast
2:53 AM19.9 °F17.1 °F89 %29.94 in5.0 miCalmOvercast
3:53 AM19.9 °F16.0 °F85 %29.94 in10.0 miCalmOvercast
4:53 AM19.0 °F15.1 °F85 %29.92 in9.0 miCalmOvercast
5:20 AM17.6 °F15.8 °F93 %29.88 in8.0 miCalmOvercast
5:32 AM17.6 °F15.8 °F93 %29.89 in8.0 miCalmOvercast
5:53 AM19.0 °F15.1 °F85 %29.93 in8.0 miCalmOvercast
6:53 AM17.1 °F14.0 °F88 %29.93 in7.0 miCalmOvercast
7:29 AM15.8 °F14.0 °F93 %29.90 in6.0 miCalmOvercast
7:39 AM15.8 °F12.2 °F86 %29.91 in6.0 miWest (260°)4.6 mphOvercast
7:53 AM15.1 °F12.9 °F91 %29.95 in6.0 miWest (260°)3.5 mphOvercast
8:53 AM14.0 °F12.0 °F92 %29.96 in3.0 miCalmClear
9:13 AM12.2 °F10.4 °F92 %29.90 in2.5 miCalmClear
9:20 AM14.0 °F12.2 °F93 %29.91 in3.0 miCalmClear
9:53 AM19.0 °F16.0 °F88 %29.94 in5.0 miSouth (180°)6.9 mphPartly Cloudy
10:53 AM19.9 °F16.0 °F85 %29.92 in8.0 miSouth (190°)9.2 mphMostly Cloudy
11:53 AM21.0 °F15.1 °F78 %29.91 in10.0 miSSW (200°)12.7 mphPartly Cloudy
12:53 PM23.0 °F16.0 °F74 %29.88 in10.0 miSW (220°)9.2 mphOvercast
1:53 PM24.1 °F17.1 °F75 %29.85 in10.0 miSouth (190°)8.1 mphOvercast
2:53 PM26.1 °F17.1 °F69 %29.84 in9.0 miSSW (210°)12.7 mphOvercast
3:53 PM26.1 °F18.0 °F71 %29.83 in10.0 miSSW (210°)11.5 mphOvercast
4:53 PM26.1 °F19.9 °F78 %29.84 in7.0 miSSW (200°)8.1 mphOvercast
5:15 PM24.8 °F19.4 °F80 %29.80 in2.5 miSouth (190°)6.9 mph0.00 inSnowLight Snow
5:20 PM24.8 °F19.4 °F80 %29.80 in1.2 miSouth (190°)6.9 mph0.00 inSnowLight Snow
5:42 PM24.8 °F21.2 °F86 %29.81 in0.5 miSW (220°)8.1 mph0.00 inFog-SnowSnow
5:53 PM25.0 °F21.9 °F88 %29.85 in0.5 miSW (220°)8.1 mph0.01 inFog-SnowLight Snow
6:09 PM24.8 °F21.2 °F86 %29.81 in1.5 miSW (220°)9.2 mph0.00 inSnowLight Snow
6:15 PM24.8 °F21.2 °F86 %29.82 in3.0 miSW (220°)4.6 mph0.00 inSnowLight Snow
6:27 PM24.8 °F21.2 °F86 %29.82 in5.0 miSW (220°)8.1 mph0.00 inOvercast
6:53 PM24.1 °F21.9 °F91 %29.86 in5.0 miSSW (210°)8.1 mph0.00 inOvercast
7:08 PM24.8 °F21.2 °F86 %29.82 in7.0 miSW (220°)9.2 mphOvercast
7:35 PM24.8 °F21.2 °F86 %29.84 in6.0 miWSW (240°)6.9 mphOvercast
7:44 PM24.8 °F21.2 °F86 %29.84 in6.0 miWSW (240°)8.1 mphOvercast
7:53 PM25.0 °F21.9 °F88 %29.88 in6.0 miSW (230°)6.9 mphOvercast
7:56 PM24.8 °F21.2 °F86 %29.84 in6.0 miSW (230°)8.1 mphOvercast
8:11 PM24.8 °F21.2 °F86 %29.85 in6.0 miSW (230°)6.9 mphOvercast
8:53 PM26.1 °F23.0 °F88 %29.90 in6.0 miSW (230°)8.1 mphOvercast
9:53 PM26.1 °F24.1 °F92 %29.92 in5.0 miWSW (240°)5.8 mphOvercast
10:23 PM26.6 °F24.8 °F93 %29.89 in4.0 miWSW (240°)5.8 mphOvercast
10:53 PM26.1 °F25.0 °F96 %29.94 in3.0 miWSW (250°)5.8 mphOvercast
11:13 PM28.4 °F24.8 °F86 %29.91 in6.0 miWNW (300°)10.4 mph17.3 mphOvercast
11:18 PM28.4 °F24.8 °F86 %29.91 in7.0 miWNW (300°)12.7 mphOvercast
11:53 PM28.0 °F21.9 °F78 %29.97 in10.0 miNW (310°)15.0 mph21.9 mphOvercast
Hourly data recorded from KARB, located miles away from Ann Arbor, Michigan







STORIES FROM OUR PARTNERS